Volver al catálogo

ONEWEB-0512

ActivoComunicacionesPO
NORAD 54130·PAYLOAD·🇬🇧 United Kingdom

Lanzado Oct 22, 2022 desde Satish Dhawan Space Centre

Loading…

Próximos Pases (próximas 24 horas)

TLE

ActualizadoSource: CelesTrak SupGP

Época: Sep 14, 2026, 17:17 UTC

1 54130C 22138T   26257.72030509 -.00001253  00000+0 -31334-2 0  2572
2 54130  87.9108 287.1349 0002135  86.4295  27.6227 13.19725008    10

Sigue ONEWEB-0512 en tiempo real con AllMySat

Download on the App Store